Jaipur, India

11:39 PM IST on June 28, 2017 (GMT +0530)
Jaipur

Weather History for VIJP - July, 2013

Change the Weather History Date:

Tuesday, July 2, 2013

  Actual Average Record
Temperature  
Mean Temperature 86 °F -  
Max Temperature 96 °F - - ()
Min Temperature 75 °F - - ()
Cooling Degree Days 20    
Growing Degree Days 36 (Base 50)    
Moisture  
Dew Point 73 °F    
Average Humidity 64    
Maximum Humidity 79    
Minimum Humidity 18    
Precipitation  
Precipitation 0.08 in - - ()
Sea Level Pressure  
Sea Level Pressure 29.47 in    
Wind  
Wind Speed 2 mph ()    
Max Wind Speed 7 mph    
Max Gust Speed -    
Visibility 2.1 miles    
Events Thunderstorm    
T = Trace of Precipitation, MM = Missing Value Source: Averaged Metar Reports

Daily Weather History Graph

Daily Weather History Graph

Search for Another Location

Airport or City:

Trip Planner

Search our weather history database for the weather conditions in past years. The results will help you decide how hot, cold, wet, or windy it might be!

Date:

Astronomy

Jul. 02, 2013 Rise Set
Actual Time 5:36 AM IST 7:24 PM IST
Civil Twilight 5:10 AM IST 7:50 PM IST
Nautical Twilight 4:39 AM IST 8:22 PM IST
Astronomical Twilight 4:05 AM IST 8:55 PM IST
Moon 1:06 AM IST (7/2) 2:26 PM IST (7/2)
Length of Visible Light 14h 40m
Length of Day
13h 47m
Waning Crescent, 30% of the Moon is Illuminated
Jul 2
Waning Crescent
Jul 8
New
Jul 16
First Quarter
Jul 22
Full
Jul 29
Last Quarter

Hourly Weather History & Observations

Time (IST) Temp. Heat Index Dew Point Humidity Pressure Visibility Wind Dir Wind Speed Gust Speed Precip Events Conditions
12:00 AM 84.2 °F 89.6 °F 71.6 °F 66% 29.50 in 1.9 mi Variable 1.2 mph - N/A   Haze
1:00 AM 86.0 °F 90.4 °F 69.8 °F 58% 29.47 in 1.9 mi NW 4.6 mph - N/A   Haze
2:00 AM 84.2 °F 89.6 °F 71.6 °F 66% 29.47 in 1.9 mi Calm Calm - N/A   Haze
2:30 AM 83 °F - 72 °F 62% 29.42 in 1 mi NW 1.2 mph - -   Haze
3:00 AM 82.4 °F 88.2 °F 73.4 °F 74% 29.47 in 1.9 mi Calm Calm - N/A   Haze
4:00 AM 82.4 °F 88.2 °F 73.4 °F 74% 29.47 in 1.9 mi West 5.8 mph - N/A   Haze
5:00 AM 82.4 °F 88.2 °F 73.4 °F 74% 29.47 in 1.9 mi Variable 2.3 mph - N/A   Haze
5:30 AM 82 °F - 73 °F 69% 29.40 in 1 mi Calm Calm - -   Haze
6:00 AM 82.4 °F 89.5 °F 75.2 °F 79% 29.50 in 1.9 mi Calm Calm - N/A   Haze
7:00 AM 84.2 °F 90.9 °F 73.4 °F 70% 29.50 in 1.9 mi Calm Calm - N/A   Haze
8:00 AM 86.0 °F 93.4 °F 73.4 °F 66% 29.50 in 1.9 mi Variable 6.9 mph - N/A   Haze
8:30 AM 87 °F - 73 °F 55% 29.43 in 1 mi NW 4.6 mph - -   Haze
9:00 AM 87.8 °F 95.6 °F 73.4 °F 62% 29.53 in 2.2 mi Variable 4.6 mph - N/A   Haze
9:30 AM 89.6 °F 98.2 °F 73.4 °F 59% 29.50 in 2.2 mi NNE 3.5 mph - N/A   Haze
10:00 AM 89.6 °F 99.8 °F 75.2 °F 62% 29.53 in 2.5 mi ESE 4.6 mph - N/A   Haze
11:00 AM 91.4 °F 102.5 °F 75.2 °F 59% 29.53 in 2.5 mi Variable 1.2 mph - N/A   Haze
11:30 AM 94 °F - 77 °F 49% 29.43 in 2 mi 2.3 mph - -   Haze
1:00 PM 93.2 °F 105.0 °F 75.2 °F 56% 29.50 in 3.1 mi SE 6.9 mph - N/A   Haze
2:00 PM 96.8 °F 109.6 °F 75.2 °F 50% 29.47 in 3.1 mi Calm Calm - N/A   Haze
2:30 PM 96 °F - 75 °F 42% 29.33 in 2 mi ESE 4.6 mph - -   Haze
3:00 PM 96.8 °F 109.6 °F 75.2 °F 50% 29.44 in 3.1 mi ESE 6.9 mph - N/A   Haze
5:00 PM 82.4 °F 86.3 °F 69.8 °F 66% 29.44 in 2.5 mi East 6.9 mph - N/A Thunderstorm Thunderstorm
5:30 PM 81 °F - 71 °F 65% 29.40 in 2 mi ESE 6.9 mph - - Thunderstorm Thunderstorm
6:00 PM 82.4 °F 87.2 °F 71.6 °F 70% 29.44 in 2.5 mi WSW 6.9 mph - N/A Thunderstorm Thunderstorm
7:00 PM 82.4 °F 87.2 °F 71.6 °F 70% 29.47 in 2.5 mi Calm Calm - N/A   Haze
8:00 PM 82.4 °F 89.5 °F 75.2 °F 79% 29.50 in 2.5 mi Calm Calm - N/A   Haze
8:30 PM 82 °F - 46 °F 18% 29.44 in 2 mi SW 3.5 mph - -   Haze
9:00 PM 82.4 °F 89.5 °F 75.2 °F 79% 29.50 in 2.5 mi Variable 1.2 mph - N/A   Haze
10:00 PM 82.4 °F 89.5 °F 75.2 °F 79% 29.53 in 2.5 mi SW 4.6 mph - N/A   Haze
11:00 PM 82.4 °F 89.5 °F 75.2 °F 79% 29.53 in 2.5 mi Calm Calm - N/A   Haze
11:30 PM 82 °F - 72 °F 63% 29.48 in 2 mi Calm Calm - -   Haze